Le nostre stazioni meteo in Italia

Pubblicità
Il mio iltempo24.it
Lentran, Gran Bretagna (99125): Temperatura & dewpoint: 10.12.2017 16:00:00 - 16.12.2017 16:00:00 (GMT)Lentran, Gran Bretagna (99125): precipitazioni: 10.12.2017 16:00:00 - 16.12.2017 16:00:00 (GMT)
Data & Tempo tt [°C] td [°C] rr [mm]
16.12.2017 16:00:00 0,7 -0,8 0,0
16.12.2017 15:00:00 1,4 0,0 0,0
16.12.2017 14:00:00 0,7 -0,3 0,0
16.12.2017 13:00:00 0,1 -0,7 0,0
16.12.2017 12:00:00 1,0 -1,0 0,0
16.12.2017 11:00:00 0,4 -1,1 0,0
16.12.2017 10:00:00 -0,5 -1,6 0,0
16.12.2017 09:00:00 -1,0 -1,5 0,0
16.12.2017 08:00:00 -0,4 -1,5 0,0
16.12.2017 07:00:00 -0,3 -1,7 0,0
16.12.2017 06:00:00 0,0 -1,1 0,0
16.12.2017 05:00:00 0,7 -0,5 0,0
16.12.2017 04:00:00 0,6 -1,4 0,0
16.12.2017 03:00:00 0,9 -1,5 0,0
16.12.2017 02:00:00 0,3 -1,9 0,0
16.12.2017 01:00:00 1,0 -1,0 0,0
16.12.2017 00:00:00 1,0 -1,4 0,0
15.12.2017 23:00:00 1,0 -1,4 0,0
15.12.2017 22:00:00 0,8 -0,8 0,0
15.12.2017 21:00:00 1,0 -1,6 0,0
15.12.2017 20:00:00 1,9 -1,5 0,0
15.12.2017 19:00:00 1,1 -1,0 0,0
15.12.2017 18:00:00 - - 0,0
15.12.2017 17:00:00 1,7 -0,2 0,0
15.12.2017 16:00:00 2,0 0,4 0,2
15.12.2017 15:00:00 2,1 0,4 0,0
15.12.2017 14:00:00 2,5 0,2 0,2
15.12.2017 13:00:00 1,8 0,0 0,0
15.12.2017 12:00:00 2,5 0,7 0,0
15.12.2017 11:00:00 0,6 -0,5 0,0
15.12.2017 10:00:00 0,8 -0,1 0,0
15.12.2017 09:00:00 0,9 -0,3 0,0
15.12.2017 08:00:00 0,0 -0,9 0,0
15.12.2017 07:00:00 2,2 0,3 0,0
15.12.2017 06:00:00 1,9 0,8 0,4
15.12.2017 05:00:00 2,4 1,4 0,2
15.12.2017 04:00:00 2,6 1,5 0,6
15.12.2017 03:00:00 2,6 2,0 0,6
15.12.2017 02:00:00 1,8 1,6 0,8
15.12.2017 01:00:00 1,7 1,3 0,2
15.12.2017 00:00:00 1,8 1,5 0,0
14.12.2017 23:00:00 0,3 0,3 0,0
14.12.2017 22:00:00 0,5 0,5 0,0
14.12.2017 21:00:00 0,3 0,3 0,2
14.12.2017 20:00:00 0,4 0,3 0,0
14.12.2017 19:00:00 0,4 0,1 0,4
14.12.2017 18:00:00 1,0 0,6 1,4
14.12.2017 17:00:00 1,6 0,9 0,2
14.12.2017 16:00:00 1,4 0,5 0,2
14.12.2017 15:00:00 1,2 0,5 0,2
14.12.2017 14:00:00 1,4 -0,2 0,0
14.12.2017 13:00:00 1,2 -0,7 0,0
14.12.2017 12:00:00 1,0 -1,0 0,0
14.12.2017 11:00:00 0,0 -1,1 0,0
14.12.2017 10:00:00 -0,9 -1,5 0,0
14.12.2017 09:00:00 -0,7 -1,2 0,0
14.12.2017 08:00:00 0,1 -1,1 0,0
14.12.2017 07:00:00 -0,4 -0,7 0,0
14.12.2017 06:00:00 0,0 -0,9 0,0
14.12.2017 05:00:00 0,4 -0,4 0,0
14.12.2017 04:00:00 0,3 -0,2 0,0
14.12.2017 03:00:00 0,5 -0,1 0,0
14.12.2017 02:00:00 0,4 0,3 0,0
14.12.2017 01:00:00 0,7 0,3 0,0
14.12.2017 00:00:00 0,7 -0,1 0,0
13.12.2017 23:00:00 1,3 -1,0 0,0
13.12.2017 22:00:00 0,7 -1,9 0,0
13.12.2017 21:00:00 1,1 -1,3 0,0
13.12.2017 20:00:00 0,3 -1,9 0,0
13.12.2017 19:00:00 0,8 -1,6 0,0
13.12.2017 18:00:00 0,2 -1,2 0,0
13.12.2017 17:00:00 0,6 -1,2 0,0
13.12.2017 16:00:00 0,6 -0,9 0,0
13.12.2017 15:00:00 1,1 -0,5 0,0
13.12.2017 14:00:00 1,1 0,1 0,6
13.12.2017 13:00:00 1,9 0,4 0,8
13.12.2017 12:00:00 2,0 0,5 0,8
13.12.2017 11:00:00 2,1 0,7 1,0
13.12.2017 10:00:00 2,4 1,1 1,2
13.12.2017 09:00:00 2,1 1,5 1,4
13.12.2017 08:00:00 1,3 0,7 2,2
13.12.2017 07:00:00 2,3 1,4 2,6
13.12.2017 06:00:00 2,9 1,8 0,2
13.12.2017 05:00:00 3,0 0,8 0,2
13.12.2017 04:00:00 1,9 0,4 0,0
13.12.2017 03:00:00 1,6 0,1 0,2
13.12.2017 02:00:00 2,2 0,5 0,2
13.12.2017 01:00:00 2,8 0,4 0,4
13.12.2017 00:00:00 2,9 0,5 0,4
12.12.2017 23:00:00 2,9 0,9 0,4
12.12.2017 22:00:00 2,5 1,2 0,8
12.12.2017 21:00:00 2,1 0,9 0,8
12.12.2017 20:00:00 2,1 1,1 0,8
12.12.2017 19:00:00 2,3 1,0 0,2
12.12.2017 18:00:00 2,5 0,7 0,0
12.12.2017 17:00:00 2,0 0,5 0,0
12.12.2017 16:00:00 2,2 0,5 0,0
12.12.2017 15:00:00 0,2 -0,8 0,0
12.12.2017 14:00:00 1,9 0,3 0,0
12.12.2017 13:00:00 0,1 -0,4 0,0
12.12.2017 12:00:00 -0,1 -0,6 0,0
12.12.2017 11:00:00 -0,3 -2,5 0,0
12.12.2017 10:00:00 -0,8 -2,2 0,0
12.12.2017 09:00:00 -0,5 -2,4 0,0
12.12.2017 08:00:00 -0,7 -1,5 0,0
12.12.2017 07:00:00 -0,8 -1,4 0,0
12.12.2017 06:00:00 -0,7 -1,4 0,0
12.12.2017 05:00:00 0,1 -1,4 0,0
12.12.2017 04:00:00 -0,9 -1,8 0,0
12.12.2017 03:00:00 0,0 -1,6 0,0
12.12.2017 02:00:00 0,7 -1,1 0,0
12.12.2017 01:00:00 0,4 -0,6 0,0
12.12.2017 00:00:00 -0,7 -1,2 0,0
11.12.2017 23:00:00 -0,5 -0,8 0,0
11.12.2017 22:00:00 -0,3 -0,8 0,0
11.12.2017 21:00:00 0,6 -0,2 0,0
11.12.2017 20:00:00 0,4 0,2 0,0
11.12.2017 19:00:00 -0,3 -0,3 0,0
11.12.2017 18:00:00 0,1 -0,2 0,0
11.12.2017 17:00:00 0,2 -0,6 0,0
11.12.2017 16:00:00 -0,8 -1,0 0,0
11.12.2017 15:00:00 -0,6 -0,9 0,0
11.12.2017 14:00:00 -0,1 -0,8 0,0
11.12.2017 13:00:00 -0,2 -0,9 0,0
11.12.2017 12:00:00 1,0 -0,1 0,0
11.12.2017 11:00:00 1,9 0,5 0,0
11.12.2017 10:00:00 1,0 0,3 0,0
11.12.2017 09:00:00 1,7 0,2 0,0
11.12.2017 08:00:00 1,1 0,0 0,0
11.12.2017 07:00:00 1,3 0,2 0,0
11.12.2017 06:00:00 0,2 -0,2 0,0
11.12.2017 05:00:00 0,0 -0,7 0,0
11.12.2017 04:00:00 -0,2 -1,1 0,0
11.12.2017 03:00:00 -0,1 -0,9 0,0
11.12.2017 02:00:00 -0,1 -0,8 0,0
11.12.2017 01:00:00 -0,6 -1,3 0,0
11.12.2017 00:00:00 -0,3 -1,0 0,0
10.12.2017 23:00:00 0,1 -0,7 0,0
10.12.2017 22:00:00 0,3 -1,7 0,0
10.12.2017 21:00:00 0,0 -1,9 0,0
10.12.2017 20:00:00 -0,6 -2,5 0,0
10.12.2017 19:00:00 -0,8 -2,6 0,0
10.12.2017 18:00:00 -1,4 -3,1 0,0
10.12.2017 17:00:00 -2,1 -3,9 0,0
10.12.2017 16:00:00 -2,6 -4,1 0,0

tt = Temperatura
td = dewpoint
rr = precipitazioni

Stazioni seguenti

WeatherPro
AMSI
MeteoEarth